Weather reports worldwide

Advertisment
Gourette, France (7775): temperature & dewpoint: 13.12.2018 05:00:00 - 19.12.2018 05:00:00 (CET)Gourette, France (7775): wind speed & gusts: 13.12.2018 05:00:00 - 19.12.2018 05:00:00 (CET)Gourette, France (7775): wind direction: 13.12.2018 05:00:00 - 19.12.2018 05:00:00 (CET)Gourette, France (7775): reduced air pressure: 13.12.2018 05:00:00 - 19.12.2018 05:00:00 (CET)Gourette, France (7775): visibility: 13.12.2018 05:00:00 - 19.12.2018 05:00:00 (CET)Gourette, France (7775): precipitation: 13.12.2018 05:00:00 - 19.12.2018 05:00:00 (CET)
Date & Time tt [°C] td [°C] ff [km/h] ff [kn] fx [km/h] fx [kn] dd ppp [hPa] vv [km] rr [mm]
19.12.2018 05:00:00 8,3 5,2 16 9 23 12 SW 1023,8 - 0,0
19.12.2018 04:00:00 8,0 3,6 18 10 20 11 SW 1024,2 - 0,0
19.12.2018 03:00:00 8,8 3,2 15 8 17 9 SW 1025,0 - 0,0
19.12.2018 02:00:00 8,7 3,1 14 8 16 8 SW 1025,0 - 0,0
19.12.2018 01:00:00 9,5 2,6 5 3 8 4 SW 1025,2 - 0,0
19.12.2018 00:00:00 10,5 3,1 2 1 11 6 SSE 1025,6 - 0,0
18.12.2018 23:00:00 10,3 2,4 11 6 16 9 NW 1026,1 - 0,0
18.12.2018 22:00:00 10,0 2,8 6 3 13 7 SSW 1025,9 - 0,0
18.12.2018 21:00:00 9,2 3,6 12 7 17 9 SW 1026,0 - 0,0
18.12.2018 20:00:00 8,8 3,8 15 8 17 9 SSW 1026,2 - 0,0
18.12.2018 19:00:00 9,7 4,3 12 6 13 7 SW 1026,3 20 0,0
18.12.2018 18:00:00 9,7 3,9 13 7 14 8 WSW 1026,2 - 0,0
18.12.2018 17:00:00 10,2 3,9 9 5 11 6 WSW 1026,0 - 0,0
18.12.2018 16:00:00 12,9 2,1 7 4 17 9 S 1026,0 - 0,0
18.12.2018 15:00:00 14,1 5,2 7 4 14 7 ESE 1025,6 - 0,0
18.12.2018 14:00:00 14,9 5,7 7 4 16 9 E 1026,1 - 0,0
18.12.2018 13:00:00 14,9 5,9 11 6 16 9 ENE 1026,7 - 0,0
18.12.2018 12:00:00 15,5 4,8 9 5 16 9 NNE 1027,4 - 0,0
18.12.2018 11:00:00 13,5 6,1 7 4 14 8 NNW 1028,2 - 0,0
18.12.2018 10:00:00 12,3 5,7 12 7 16 9 NNW 1028,0 25 0,0
18.12.2018 09:00:00 10,5 4,0 16 9 18 10 NW 1027,5 - 0,0
18.12.2018 08:00:00 10,2 4,6 13 7 18 10 NW 1027,2 - 0,0
18.12.2018 07:00:00 9,5 4,3 16 9 22 12 NW 1026,6 25 0,0
18.12.2018 06:00:00 8,5 3,5 18 10 22 12 NNW 1026,4 - 0,0
18.12.2018 05:00:00 9,1 4,3 19 10 27 15 NNW 1026,3 - 0,0
18.12.2018 04:00:00 8,9 3,9 21 12 27 14 NNW 1026,4 20 0,0
18.12.2018 03:00:00 9,0 1,9 18 10 28 15 N 1026,2 - 0,0
18.12.2018 02:00:00 10,2 -0,9 11 6 23 12 NNW 1026,0 - 0,0
18.12.2018 01:00:00 10,5 -1,3 11 6 18 10 NW 1025,6 - 0,0
18.12.2018 00:00:00 9,6 -0,3 16 9 20 11 NW 1025,4 - 0,0
17.12.2018 23:00:00 8,0 0,7 15 8 29 16 NW 1025,5 - 0,0
17.12.2018 22:00:00 9,6 0,7 22 12 47 25 NNW 1025,3 - 0,0
17.12.2018 21:00:00 9,9 0,5 24 13 34 19 NNW 1024,6 - 0,0
17.12.2018 20:00:00 9,9 1,5 21 12 34 19 NNW 1024,0 - 0,0
17.12.2018 19:00:00 9,2 2,5 25 14 36 19 NW 1023,1 - 0,0
17.12.2018 18:00:00 9,1 2,6 16 9 31 17 NW 1021,9 - 0,0
17.12.2018 17:00:00 8,8 3,6 20 11 38 21 NW 1020,6 - 0,0
17.12.2018 16:00:00 9,1 4,3 23 13 41 22 NNW 1019,7 25 0,0
17.12.2018 15:00:00 8,9 5,3 20 11 44 24 NNW 1018,8 - 0,0
17.12.2018 14:00:00 8,2 6,8 26 14 49 26 N 1018,0 - 0,0
17.12.2018 13:00:00 8,1 7,3 29 16 61 33 N 1017,1 - 0,8
17.12.2018 12:00:00 9,1 8,3 34 18 55 30 N 1016,1 - 0,8
17.12.2018 11:00:00 9,9 9,4 28 15 46 25 N 1016,1 - 0,4
17.12.2018 10:00:00 9,0 8,4 24 13 40 21 N 1015,6 15 0,6
17.12.2018 09:00:00 9,3 8,2 27 14 39 21 N 1014,7 - 0,0
17.12.2018 08:00:00 9,6 8,7 24 13 38 20 N 1013,7 - 0,0
17.12.2018 07:00:00 9,7 8,8 21 11 42 23 N 1013,3 15 0,0
17.12.2018 06:00:00 10,1 9,3 26 14 42 23 N 1012,4 - 0,0
17.12.2018 05:00:00 10,4 9,5 27 15 39 21 N 1012,0 - 0,0
17.12.2018 04:00:00 10,7 9,9 17 9 28 15 N 1011,8 15 0,0
17.12.2018 03:00:00 10,5 9,6 9 5 42 23 NNW 1011,8 - 0,0
17.12.2018 02:00:00 10,4 9,6 20 11 43 23 N 1011,1 - 0,2
17.12.2018 01:00:00 10,3 9,7 30 16 49 26 N 1010,6 - 0,0
17.12.2018 00:00:00 10,7 9,9 29 15 57 31 N 1010,3 - 0,0
16.12.2018 23:00:00 10,6 9,8 24 13 37 20 NNW 1010,1 - 0,0
16.12.2018 22:00:00 9,7 8,9 19 11 27 15 N 1010,6 - 0,0
16.12.2018 21:00:00 10,1 9,3 11 6 18 10 N 1010,5 - 0,2
16.12.2018 20:00:00 10,0 9,1 9 5 16 9 N 1011,5 - 0,0
16.12.2018 19:00:00 10,1 8,7 9 5 12 7 N 1012,4 - 0,6
16.12.2018 18:00:00 10,1 9,2 7 4 10 6 WSW 1013,1 - 0,4
16.12.2018 17:00:00 11,1 7,8 8 4 11 6 S 1014,3 - 0,0
16.12.2018 16:00:00 11,5 8,0 9 5 15 8 WNW 1015,1 - 0,0
16.12.2018 15:00:00 11,2 7,3 9 5 19 10 WNW 1015,7 - 0,0
16.12.2018 14:00:00 10,9 6,2 10 6 14 8 NNW 1016,6 - 0,0
16.12.2018 13:00:00 10,7 5,4 6 3 15 8 W 1017,7 - 0,0
16.12.2018 12:00:00 10,9 5,0 10 5 22 12 SW 1018,3 - 0,0
16.12.2018 11:00:00 10,8 4,7 14 8 22 12 SW 1019,0 - 0,0
16.12.2018 10:00:00 9,9 4,5 13 7 22 12 SW 1019,2 - 0,0
16.12.2018 09:00:00 8,5 4,5 15 8 18 10 SW 1019,0 - 0,0
16.12.2018 08:00:00 8,3 3,7 11 6 13 7 WSW 1019,2 - 0,0
16.12.2018 07:00:00 8,4 3,0 9 5 14 8 WSW 1019,1 18 0,0
16.12.2018 06:00:00 8,0 2,4 11 6 14 8 SW 1018,9 - 0,0
16.12.2018 05:00:00 8,3 1,9 9 5 13 7 WSW 1019,2 - 0,0
16.12.2018 04:00:00 8,0 1,6 10 5 16 8 WSW 1019,3 - 0,0
16.12.2018 03:00:00 8,0 1,6 10 5 13 7 WSW 1019,8 - 0,0
16.12.2018 02:00:00 8,0 1,6 11 6 14 8 WSW 1019,7 - 0,0
16.12.2018 01:00:00 7,9 1,1 11 6 15 8 WSW 1020,1 - 0,0
16.12.2018 00:00:00 7,5 1,1 11 6 14 8 WSW 1020,3 - 0,0
15.12.2018 23:00:00 7,5 0,9 11 6 15 8 W 1020,3 - 0,0
15.12.2018 22:00:00 7,9 0,4 11 6 14 8 NW 1020,1 - 0,0
15.12.2018 21:00:00 7,8 0,7 13 7 16 9 NW 1020,6 - 0,0
15.12.2018 20:00:00 7,7 0,6 15 8 23 12 NW 1020,4 - 0,0
15.12.2018 19:00:00 7,4 1,0 16 9 21 11 NW 1020,1 - 0,0
15.12.2018 18:00:00 6,7 1,4 19 10 27 14 NNW 1019,8 - 0,0
15.12.2018 17:00:00 7,3 1,8 18 10 29 16 N 1019,0 - 0,0
15.12.2018 16:00:00 9,6 1,2 23 12 37 20 NNE 1018,6 30 0,0
15.12.2018 15:00:00 11,2 2,5 22 12 36 19 NNE 1018,3 - 0,0
15.12.2018 14:00:00 12,1 2,8 20 11 37 20 NNE 1017,7 - 0,0
15.12.2018 13:00:00 12,5 3,4 30 16 44 24 NNE 1017,8 - 0,0
15.12.2018 12:00:00 12,0 3,7 28 15 48 26 N 1017,9 - 0,0
15.12.2018 11:00:00 11,6 3,6 25 13 37 20 NNE 1018,3 - 0,0
15.12.2018 10:00:00 9,0 3,4 19 10 31 17 N 1018,3 22 0,0
15.12.2018 09:00:00 7,7 2,4 19 11 31 17 NNW 1017,7 - 0,0
15.12.2018 08:00:00 6,3 1,8 24 13 33 18 NNW 1016,9 - 0,0
15.12.2018 07:00:00 5,7 1,6 13 7 27 15 NNW 1016,4 15 0,0
15.12.2018 06:00:00 6,3 1,8 23 12 35 19 N 1016,1 - 0,0
15.12.2018 05:00:00 6,5 2,2 26 14 39 21 N 1015,6 - 0,0
15.12.2018 04:00:00 7,1 2,2 17 9 32 18 N 1015,6 - 0,0
15.12.2018 03:00:00 7,5 2,6 20 11 30 16 NNW 1015,3 - 0,0
15.12.2018 02:00:00 7,6 2,9 19 10 31 17 N 1014,7 - 0,0
15.12.2018 01:00:00 7,7 2,8 23 12 40 21 N 1014,4 - 0,0
15.12.2018 00:00:00 6,8 2,1 19 11 30 16 N 1014,4 - 0,0
14.12.2018 23:00:00 7,3 0,0 16 8 31 17 NNW 1014,0 - 0,0
14.12.2018 22:00:00 7,5 -0,2 16 8 30 16 NNW 1013,9 - 0,0
14.12.2018 21:00:00 7,5 1,3 22 12 32 17 NNW 1013,7 - 0,0
14.12.2018 20:00:00 7,8 1,6 22 12 38 20 NNW 1013,5 - 0,0
14.12.2018 19:00:00 8,5 1,9 29 16 40 22 NNW 1012,7 12 0,0
14.12.2018 18:00:00 8,5 1,9 28 15 51 27 NNW 1012,2 - 0,0
14.12.2018 17:00:00 8,6 3,0 26 14 52 28 N 1011,4 - 0,0
14.12.2018 16:00:00 9,1 3,9 27 15 53 29 N 1011,1 30 0,0
14.12.2018 15:00:00 9,4 5,0 26 14 49 27 N 1010,8 - 0,0
14.12.2018 14:00:00 10,0 5,4 31 17 52 28 N 1010,4 - 0,0
14.12.2018 13:00:00 10,3 5,5 36 19 56 30 N 1010,2 30 0,0
14.12.2018 12:00:00 9,9 6,6 26 14 49 26 NNW 1010,4 - 0,0
14.12.2018 11:00:00 9,1 6,0 27 15 48 26 NNW 1010,5 - 0,0
14.12.2018 10:00:00 8,8 6,1 23 12 39 21 N 1009,9 18 0,0
14.12.2018 09:00:00 8,5 6,5 21 11 35 19 N 1009,8 - 0,0
14.12.2018 08:00:00 8,2 6,5 21 11 39 21 N 1009,3 - 0,0
14.12.2018 07:00:00 8,0 6,6 23 12 36 19 N 1008,9 18 0,0
14.12.2018 06:00:00 8,1 6,2 19 11 37 20 N 1008,6 - 0,0
14.12.2018 05:00:00 8,1 6,6 22 12 32 17 NNW 1008,6 - 0,2
14.12.2018 04:00:00 8,0 6,5 18 10 31 17 NNW 1009,0 - 0,2
14.12.2018 03:00:00 8,0 6,5 21 11 32 17 NNW 1009,4 - 0,2
14.12.2018 02:00:00 8,2 7,3 21 11 32 18 N 1009,4 - 0,0
14.12.2018 01:00:00 8,4 7,5 18 10 25 14 NNW 1009,5 - 0,4
14.12.2018 00:00:00 8,4 7,3 15 8 25 14 NNW 1009,7 - 0,2
13.12.2018 23:00:00 8,5 7,7 16 8 29 16 NNW 1009,7 - 0,4
13.12.2018 22:00:00 8,2 7,6 17 9 22 12 NW 1009,8 - 0,8
13.12.2018 21:00:00 8,2 7,6 14 8 26 14 NNW 1010,0 - 1,1
13.12.2018 20:00:00 8,1 7,5 18 10 24 13 NW 1009,9 - 3,0
13.12.2018 19:00:00 8,4 7,6 14 8 23 13 NNW 1009,8 - 1,6
13.12.2018 18:00:00 8,4 7,8 17 9 29 16 N 1009,6 - 0,6
13.12.2018 17:00:00 8,5 7,7 17 9 29 16 N 1009,7 - 0,2
13.12.2018 16:00:00 8,6 7,7 16 9 24 13 N 1009,8 - 0,6
13.12.2018 15:00:00 8,7 7,5 16 9 21 11 NNW 1009,8 - 0,6
13.12.2018 14:00:00 8,9 7,3 14 8 19 11 NNW 1010,0 - 0,2
13.12.2018 13:00:00 9,0 7,4 13 7 25 13 N 1010,6 25 0,0
13.12.2018 12:00:00 8,9 7,8 16 9 29 16 N 1011,3 - 0,0
13.12.2018 11:00:00 8,7 7,9 21 11 31 17 N 1011,6 - 0,0
13.12.2018 10:00:00 8,7 8,2 21 11 40 22 N 1012,1 18 0,0
13.12.2018 09:00:00 8,3 7,9 26 14 40 22 N 1012,0 - 1,0
13.12.2018 08:00:00 9,1 8,6 23 13 40 21 N 1011,8 - 3,4
13.12.2018 07:00:00 9,6 8,8 17 9 33 18 NNW 1011,5 10 2,3
13.12.2018 06:00:00 9,9 9,0 17 9 37 20 N 1011,3 - 1,0
13.12.2018 05:00:00 10,1 9,3 22 12 52 28 ENE 1011,8 - 1,0

tt = temperature
td = dewpoint
ff = wind speed
fx = gusts
dd = wind direction
ppp = reduced air pressure
vv = visibility
rr = precipitation

Next stations